owner,sensor,date,latitude,longitude,air_temperature,qcFlag 
TCOON,ioos:station:TCOON:013:1,2014-01-01T00:00:00Z,27.4847,-97.3181,7.3,1111122 
TCOON,ioos:station:TCOON:013:1,2014-01-01T00:30:00Z,27.4847,-97.3181,7.7,1111122 
TCOON,ioos:station:TCOON:013:1,2014-01-01T01:00:00Z,27.4847,-97.3181,7.8,1111122 
TCOON,ioos:station:TCOON:013:1,2014-01-01T01:30:00Z,27.4847,-97.3181,8.0,1111122 
TCOON,ioos:station:TCOON:013:1,2014-01-01T02:00:00Z,27.4847,-97.3181,7.9,1111122 
TCOON,ioos:station:TCOON:013:1,2014-01-01T02:30:00Z,27.4847,-97.3181,8.2,1111122 
TCOON,ioos:station:TCOON:013:1,2014-01-01T03:00:00Z,27.4847,-97.3181,8.1,1111122 
TCOON,ioos:station:TCOON:013:1,2014-01-01T03:30:00Z,27.4847,-97.3181,8.3,1111122 
TCOON,ioos:station:TCOON:013:1,2014-01-01T04:00:00Z,27.4847,-97.3181,8.4,1111122 
TCOON,ioos:station:TCOON:013:1,2014-01-01T04:30:00Z,27.4847,-97.3181,8.6,1111122 
TCOON,ioos:station:TCOON:013:1,2014-01-01T05:00:00Z,27.4847,-97.3181,8.2,1111122 
TCOON,ioos:station:TCOON:013:1,2014-01-01T05:30:00Z,27.4847,-97.3181,8.5,1111122 
TCOON,ioos:station:TCOON:013:1,2014-01-01T06:00:00Z,27.4847,-97.3181,8.4,1111122 
TCOON,ioos:station:TCOON:013:1,2014-01-01T06:30:00Z,27.4847,-97.3181,8.6,1111122 
TCOON,ioos:station:TCOON:013:1,2014-01-01T07:00:00Z,27.4847,-97.3181,8.4,1111122 
TCOON,ioos:station:TCOON:013:1,2014-01-01T07:30:00Z,27.4847,-97.3181,8.3,1111122 
TCOON,ioos:station:TCOON:013:1,2014-01-01T08:00:00Z,27.4847,-97.3181,8.1,1111122 
TCOON,ioos:station:TCOON:013:1,2014-01-01T08:30:00Z,27.4847,-97.3181,8.0,1111122 
TCOON,ioos:station:TCOON:013:1,2014-01-01T09:00:00Z,27.4847,-97.3181,8.0,1111122 
TCOON,ioos:station:TCOON:013:1,2014-01-01T09:30:00Z,27.4847,-97.3181,8.0,1111122 
TCOON,ioos:station:TCOON:013:1,2014-01-01T10:00:00Z,27.4847,-97.3181,8.1,1111122 
TCOON,ioos:station:TCOON:013:1,2014-01-01T10:36:00Z,27.4847,-97.3181,8.0,1111122 
TCOON,ioos:station:TCOON:013:1,2014-01-01T11:00:00Z,27.4847,-97.3181,8.0,1111122 
TCOON,ioos:station:TCOON:013:1,2014-01-01T11:36:00Z,27.4847,-97.3181,8.1,1111122 
TCOON,ioos:station:TCOON:013:1,2014-01-01T12:00:00Z,27.4847,-97.3181,8.0,1111122 
TCOON,ioos:station:TCOON:013:1,2014-01-01T12:36:00Z,27.4847,-97.3181,8.2,1111122 
TCOON,ioos:station:TCOON:013:1,2014-01-01T13:00:00Z,27.4847,-97.3181,8.3,1111122 
TCOON,ioos:station:TCOON:013:1,2014-01-01T13:36:00Z,27.4847,-97.3181,8.6,1111122 
TCOON,ioos:station:TCOON:013:1,2014-01-01T14:06:00Z,27.4847,-97.3181,8.9,1111122 
TCOON,ioos:station:TCOON:013:1,2014-01-01T14:36:00Z,27.4847,-97.3181,9.1,1111122 
TCOON,ioos:station:TCOON:013:1,2014-01-01T15:00:00Z,27.4847,-97.3181,9.4,1111122 
TCOON,ioos:station:TCOON:013:1,2014-01-01T15:36:00Z,27.4847,-97.3181,9.7,1111122 
TCOON,ioos:station:TCOON:013:1,2014-01-01T16:06:00Z,27.4847,-97.3181,9.8,1111122 
TCOON,ioos:station:TCOON:013:1,2014-01-01T16:36:00Z,27.4847,-97.3181,10.2,1111122 
TCOON,ioos:station:TCOON:013:1,2014-01-01T17:06:00Z,27.4847,-97.3181,10.0,1111122 
TCOON,ioos:station:TCOON:013:1,2014-01-01T17:36:00Z,27.4847,-97.3181,9.8,1111122 
TCOON,ioos:station:TCOON:013:1,2014-01-01T18:06:00Z,27.4847,-97.3181,10.0,1111122 
TCOON,ioos:station:TCOON:013:1,2014-01-01T18:36:00Z,27.4847,-97.3181,10.4,1111122 
TCOON,ioos:station:TCOON:013:1,2014-01-01T19:06:00Z,27.4847,-97.3181,10.9,1111122 
TCOON,ioos:station:TCOON:013:1,2014-01-01T19:36:00Z,27.4847,-97.3181,11.0,1111122 
TCOON,ioos:station:TCOON:013:1,2014-01-01T20:06:00Z,27.4847,-97.3181,11.0,1111122 
TCOON,ioos:station:TCOON:013:1,2014-01-01T20:36:00Z,27.4847,-97.3181,11.2,1111122 
TCOON,ioos:station:TCOON:013:1,2014-01-01T21:06:00Z,27.4847,-97.3181,11.3,1111122 
TCOON,ioos:station:TCOON:013:1,2014-01-01T21:36:00Z,27.4847,-97.3181,11.6,1111122 
TCOON,ioos:station:TCOON:013:1,2014-01-01T22:06:00Z,27.4847,-97.3181,11.6,1111122 
TCOON,ioos:station:TCOON:013:1,2014-01-01T22:36:00Z,27.4847,-97.3181,11.7,1111122 
TCOON,ioos:station:TCOON:013:1,2014-01-01T23:06:00Z,27.4847,-97.3181,11.8,1111122 
TCOON,ioos:station:TCOON:013:1,2014-01-01T23:36:00Z,27.4847,-97.3181,12.0,1111122 
TCOON,ioos:station:TCOON:013:1,2014-01-02T00:00:00Z,27.4847,-97.3181,11.7,1111122 
TCOON,ioos:station:TCOON:013:1,2014-01-02T00:30:00Z,27.4847,-97.3181,11.8,1111122 
TCOON,ioos:station:TCOON:013:1,2014-01-02T01:00:00Z,27.4847,-97.3181,11.4,1111122 
TCOON,ioos:station:TCOON:013:1,2014-01-02T01:30:00Z,27.4847,-97.3181,11.8,1111122 
TCOON,ioos:station:TCOON:013:1,2014-01-02T02:00:00Z,27.4847,-97.3181,11.2,1111122 
TCOON,ioos:station:TCOON:013:1,2014-01-02T02:30:00Z,27.4847,-97.3181,11.5,1111122 
TCOON,ioos:station:TCOON:013:1,2014-01-02T03:00:00Z,27.4847,-97.3181,11.6,1111122 
TCOON,ioos:station:TCOON:013:1,2014-01-02T03:30:00Z,27.4847,-97.3181,11.9,1111122 
TCOON,ioos:station:TCOON:013:1,2014-01-02T04:00:00Z,27.4847,-97.3181,12.3,1111122 
TCOON,ioos:station:TCOON:013:1,2014-01-02T04:30:00Z,27.4847,-97.3181,12.5,1111122 
TCOON,ioos:station:TCOON:013:1,2014-01-02T05:00:00Z,27.4847,-97.3181,12.3,1111122 
TCOON,ioos:station:TCOON:013:1,2014-01-02T05:54:00Z,27.4847,-97.3181,12.1,1111122 
TCOON,ioos:station:TCOON:013:1,2014-01-02T06:00:00Z,27.4847,-97.3181,12.1,1111122 
TCOON,ioos:station:TCOON:013:1,2014-01-02T06:30:00Z,27.4847,-97.3181,12.1,1111122 
TCOON,ioos:station:TCOON:013:1,2014-01-02T07:00:00Z,27.4847,-97.3181,12.2,1111122 
TCOON,ioos:station:TCOON:013:1,2014-01-02T07:30:00Z,27.4847,-97.3181,12.6,1111122 
TCOON,ioos:station:TCOON:013:1,2014-01-02T08:00:00Z,27.4847,-97.3181,12.7,1111122 
TCOON,ioos:station:TCOON:013:1,2014-01-02T08:36:00Z,27.4847,-97.3181,12.7,1111122 
TCOON,ioos:station:TCOON:013:1,2014-01-02T09:00:00Z,27.4847,-97.3181,12.9,1111122 
TCOON,ioos:station:TCOON:013:1,2014-01-02T09:36:00Z,27.4847,-97.3181,13.0,1111122 
TCOON,ioos:station:TCOON:013:1,2014-01-02T10:06:00Z,27.4847,-97.3181,13.5,1111122 
TCOON,ioos:station:TCOON:013:1,2014-01-02T10:36:00Z,27.4847,-97.3181,13.3,1111122 
TCOON,ioos:station:TCOON:013:1,2014-01-02T11:00:00Z,27.4847,-97.3181,13.8,1111122 
TCOON,ioos:station:TCOON:013:1,2014-01-02T11:36:00Z,27.4847,-97.3181,13.6,1111122 
TCOON,ioos:station:TCOON:013:1,2014-01-02T12:00:00Z,27.4847,-97.3181,13.6,1111122 
TCOON,ioos:station:TCOON:013:1,2014-01-02T12:36:00Z,27.4847,-97.3181,12.6,1111122 
TCOON,ioos:station:TCOON:013:1,2014-01-02T13:06:00Z,27.4847,-97.3181,11.8,1111122 
TCOON,ioos:station:TCOON:013:1,2014-01-02T13:36:00Z,27.4847,-97.3181,11.2,1111122 
TCOON,ioos:station:TCOON:013:1,2014-01-02T14:06:00Z,27.4847,-97.3181,10.4,1111122 
TCOON,ioos:station:TCOON:013:1,2014-01-02T14:36:00Z,27.4847,-97.3181,9.4,1111122 
TCOON,ioos:station:TCOON:013:1,2014-01-02T15:06:00Z,27.4847,-97.3181,8.7,1111122 
TCOON,ioos:station:TCOON:013:1,2014-01-02T15:36:00Z,27.4847,-97.3181,8.2,1111122 
TCOON,ioos:station:TCOON:013:1,2014-01-02T16:06:00Z,27.4847,-97.3181,7.8,1111122 
TCOON,ioos:station:TCOON:013:1,2014-01-02T16:30:00Z,27.4847,-97.3181,7.9,1111122 
TCOON,ioos:station:TCOON:013:1,2014-01-02T17:06:00Z,27.4847,-97.3181,8.2,1111122 
TCOON,ioos:station:TCOON:013:1,2014-01-02T17:36:00Z,27.4847,-97.3181,8.4,1111122 
TCOON,ioos:station:TCOON:013:1,2014-01-02T18:06:00Z,27.4847,-97.3181,8.9,1111122 
TCOON,ioos:station:TCOON:013:1,2014-01-02T18:36:00Z,27.4847,-97.3181,9.2,1111122 
TCOON,ioos:station:TCOON:013:1,2014-01-02T19:00:00Z,27.4847,-97.3181,9.6,1111122 
TCOON,ioos:station:TCOON:013:1,2014-01-02T19:36:00Z,27.4847,-97.3181,10.5,1111122 
TCOON,ioos:station:TCOON:013:1,2014-01-02T20:06:00Z,27.4847,-97.3181,10.8,1111122 
TCOON,ioos:station:TCOON:013:1,2014-01-02T20:36:00Z,27.4847,-97.3181,11.1,1111122 
TCOON,ioos:station:TCOON:013:1,2014-01-02T21:00:00Z,27.4847,-97.3181,11.4,1111122 
TCOON,ioos:station:TCOON:013:1,2014-01-02T21:36:00Z,27.4847,-97.3181,11.9,1111122 
TCOON,ioos:station:TCOON:013:1,2014-01-02T22:36:00Z,27.4847,-97.3181,11.7,1111122 
TCOON,ioos:station:TCOON:013:1,2014-01-02T23:06:00Z,27.4847,-97.3181,11.6,1111122 
TCOON,ioos:station:TCOON:013:1,2014-01-02T23:36:00Z,27.4847,-97.3181,11.7,1111122 
TCOON,ioos:station:TCOON:013:1,2014-01-03T00:00:00Z,27.4847,-97.3181,11.5,1111122 
TCOON,ioos:station:TCOON:013:1,2014-01-03T00:30:00Z,27.4847,-97.3181,11.0,1111122 
TCOON,ioos:station:TCOON:013:1,2014-01-03T01:00:00Z,27.4847,-97.3181,10.8,1111122 
TCOON,ioos:station:TCOON:013:1,2014-01-03T01:30:00Z,27.4847,-97.3181,10.7,1111122 
TCOON,ioos:station:TCOON:013:1,2014-01-03T02:00:00Z,27.4847,-97.3181,10.4,1111122 
TCOON,ioos:station:TCOON:013:1,2014-01-03T02:30:00Z,27.4847,-97.3181,9.8,1111122 
TCOON,ioos:station:TCOON:013:1,2014-01-03T03:00:00Z,27.4847,-97.3181,9.7,1111122 
TCOON,ioos:station:TCOON:013:1,2014-01-03T03:30:00Z,27.4847,-97.3181,9.4,1111122 
TCOON,ioos:station:TCOON:013:1,2014-01-03T04:00:00Z,27.4847,-97.3181,8.9,1111122 
TCOON,ioos:station:TCOON:013:1,2014-01-03T10:06:00Z,27.4847,-97.3181,6.3,1111122 
TCOON,ioos:station:TCOON:013:1,2014-01-03T10:30:00Z,27.4847,-97.3181,6.3,1111122 
TCOON,ioos:station:TCOON:013:1,2014-01-03T11:00:00Z,27.4847,-97.3181,6.2,1111122 
TCOON,ioos:station:TCOON:013:1,2014-01-03T11:30:00Z,27.4847,-97.3181,6.0,1111122 
TCOON,ioos:station:TCOON:013:1,2014-01-03T12:00:00Z,27.4847,-97.3181,5.8,1111122 
TCOON,ioos:station:TCOON:013:1,2014-01-03T12:30:00Z,27.4847,-97.3181,5.6,1111122 
TCOON,ioos:station:TCOON:013:1,2014-01-03T13:00:00Z,27.4847,-97.3181,5.6,1111122 
TCOON,ioos:station:TCOON:013:1,2014-01-03T13:30:00Z,27.4847,-97.3181,5.6,1111122 
TCOON,ioos:station:TCOON:013:1,2014-01-03T14:00:00Z,27.4847,-97.3181,5.9,1111122 
TCOON,ioos:station:TCOON:013:1,2014-01-03T14:36:00Z,27.4847,-97.3181,6.0,1111122 
TCOON,ioos:station:TCOON:013:1,2014-01-03T15:00:00Z,27.4847,-97.3181,5.9,1111122 
TCOON,ioos:station:TCOON:013:1,2014-01-03T15:36:00Z,27.4847,-97.3181,5.9,1111122 
TCOON,ioos:station:TCOON:013:1,2014-01-03T16:00:00Z,27.4847,-97.3181,6.3,1111122 
TCOON,ioos:station:TCOON:013:1,2014-01-03T16:36:00Z,27.4847,-97.3181,7.2,1111122 
TCOON,ioos:station:TCOON:013:1,2014-01-03T17:00:00Z,27.4847,-97.3181,7.3,1111122 
TCOON,ioos:station:TCOON:013:1,2014-01-03T17:36:00Z,27.4847,-97.3181,8.2,1111122 
TCOON,ioos:station:TCOON:013:1,2014-01-03T18:00:00Z,27.4847,-97.3181,8.5,1111122 
TCOON,ioos:station:TCOON:013:1,2014-01-03T18:36:00Z,27.4847,-97.3181,9.5,1111122 
TCOON,ioos:station:TCOON:013:1,2014-01-03T19:00:00Z,27.4847,-97.3181,10.1,1111122 
TCOON,ioos:station:TCOON:013:1,2014-01-03T19:36:00Z,27.4847,-97.3181,12.3,1111122 
TCOON,ioos:station:TCOON:013:1,2014-01-03T20:00:00Z,27.4847,-97.3181,12.5,1111122 
TCOON,ioos:station:TCOON:013:1,2014-01-03T20:36:00Z,27.4847,-97.3181,12.5,1111122 
TCOON,ioos:station:TCOON:013:1,2014-01-03T21:06:00Z,27.4847,-97.3181,12.7,1111122 
TCOON,ioos:station:TCOON:013:1,2014-01-03T21:36:00Z,27.4847,-97.3181,12.9,1111122 
TCOON,ioos:station:TCOON:013:1,2014-01-03T22:06:00Z,27.4847,-97.3181,13.1,1111122 
TCOON,ioos:station:TCOON:013:1,2014-01-03T22:36:00Z,27.4847,-97.3181,12.9,1111122 
TCOON,ioos:station:TCOON:013:1,2014-01-03T23:06:00Z,27.4847,-97.3181,12.7,1111122 
TCOON,ioos:station:TCOON:013:1,2014-01-03T23:36:00Z,27.4847,-97.3181,12.6,1111122 
TCOON,ioos:station:TCOON:013:1,2014-01-04T00:00:00Z,27.4847,-97.3181,12.1,1111122 
TCOON,ioos:station:TCOON:013:1,2014-01-04T00:30:00Z,27.4847,-97.3181,12.2,1111122 
TCOON,ioos:station:TCOON:013:1,2014-01-04T01:00:00Z,27.4847,-97.3181,12.1,1111122 
TCOON,ioos:station:TCOON:013:1,2014-01-04T01:30:00Z,27.4847,-97.3181,12.1,1111122 
TCOON,ioos:station:TCOON:013:1,2014-01-04T02:00:00Z,27.4847,-97.3181,12.2,1111122 
TCOON,ioos:station:TCOON:013:1,2014-01-04T02:30:00Z,27.4847,-97.3181,11.9,1111122 
TCOON,ioos:station:TCOON:013:1,2014-01-04T03:00:00Z,27.4847,-97.3181,12.1,1111122 
TCOON,ioos:station:TCOON:013:1,2014-01-04T03:30:00Z,27.4847,-97.3181,12.7,1111122 
TCOON,ioos:station:TCOON:013:1,2014-01-04T04:30:00Z,27.4847,-97.3181,12.2,1111122 
TCOON,ioos:station:TCOON:013:1,2014-01-04T05:00:00Z,27.4847,-97.3181,12.5,1111122 
TCOON,ioos:station:TCOON:013:1,2014-01-04T05:30:00Z,27.4847,-97.3181,12.2,1111122 
TCOON,ioos:station:TCOON:013:1,2014-01-04T06:00:00Z,27.4847,-97.3181,12.1,1111122 
TCOON,ioos:station:TCOON:013:1,2014-01-04T06:30:00Z,27.4847,-97.3181,12.3,1111122 
TCOON,ioos:station:TCOON:013:1,2014-01-04T07:30:00Z,27.4847,-97.3181,13.3,1111122 
TCOON,ioos:station:TCOON:013:1,2014-01-04T08:00:00Z,27.4847,-97.3181,12.7,1111122 
TCOON,ioos:station:TCOON:013:1,2014-01-04T08:30:00Z,27.4847,-97.3181,12.7,1111122 
TCOON,ioos:station:TCOON:013:1,2014-01-04T09:00:00Z,27.4847,-97.3181,12.4,1111122 
TCOON,ioos:station:TCOON:013:1,2014-01-04T09:36:00Z,27.4847,-97.3181,12.4,1111122 
TCOON,ioos:station:TCOON:013:1,2014-01-04T10:00:00Z,27.4847,-97.3181,12.6,1111122 
TCOON,ioos:station:TCOON:013:1,2014-01-04T10:36:00Z,27.4847,-97.3181,12.2,1111122 
TCOON,ioos:station:TCOON:013:1,2014-01-04T11:00:00Z,27.4847,-97.3181,12.5,1111122 
TCOON,ioos:station:TCOON:013:1,2014-01-04T11:30:00Z,27.4847,-97.3181,12.4,1111122 
TCOON,ioos:station:TCOON:013:1,2014-01-04T12:00:00Z,27.4847,-97.3181,12.0,1111122 
TCOON,ioos:station:TCOON:013:1,2014-01-04T12:30:00Z,27.4847,-97.3181,12.0,1111122 
TCOON,ioos:station:TCOON:013:1,2014-01-04T13:00:00Z,27.4847,-97.3181,12.2,1111122 
TCOON,ioos:station:TCOON:013:1,2014-01-04T13:30:00Z,27.4847,-97.3181,11.9,1111122 
TCOON,ioos:station:TCOON:013:1,2014-01-04T14:00:00Z,27.4847,-97.3181,11.7,1111122 
TCOON,ioos:station:TCOON:013:1,2014-01-04T14:30:00Z,27.4847,-97.3181,12.6,1111122 
TCOON,ioos:station:TCOON:013:1,2014-01-04T15:00:00Z,27.4847,-97.3181,12.3,1111122 
TCOON,ioos:station:TCOON:013:1,2014-01-04T15:30:00Z,27.4847,-97.3181,12.2,1111122 
TCOON,ioos:station:TCOON:013:1,2014-01-04T16:00:00Z,27.4847,-97.3181,13.0,1111122 
TCOON,ioos:station:TCOON:013:1,2014-01-04T16:30:00Z,27.4847,-97.3181,13.3,1111122 
TCOON,ioos:station:TCOON:013:1,2014-01-04T17:00:00Z,27.4847,-97.3181,13.8,1111122 
TCOON,ioos:station:TCOON:013:1,2014-01-04T17:30:00Z,27.4847,-97.3181,14.2,1111122 
TCOON,ioos:station:TCOON:013:1,2014-01-04T18:00:00Z,27.4847,-97.3181,14.7,1111122 
TCOON,ioos:station:TCOON:013:1,2014-01-04T19:00:00Z,27.4847,-97.3181,18.5,1111122 
TCOON,ioos:station:TCOON:013:1,2014-01-04T19:30:00Z,27.4847,-97.3181,18.2,1111122 
TCOON,ioos:station:TCOON:013:1,2014-01-04T20:00:00Z,27.4847,-97.3181,18.3,1111122 
TCOON,ioos:station:TCOON:013:1,2014-01-04T20:36:00Z,27.4847,-97.3181,18.2,1111122 
TCOON,ioos:station:TCOON:013:1,2014-01-04T21:00:00Z,27.4847,-97.3181,17.9,1111122 
TCOON,ioos:station:TCOON:013:1,2014-01-04T21:36:00Z,27.4847,-97.3181,18.2,1111122 
TCOON,ioos:station:TCOON:013:1,2014-01-04T22:00:00Z,27.4847,-97.3181,18.2,1111122 
TCOON,ioos:station:TCOON:013:1,2014-01-04T22:36:00Z,27.4847,-97.3181,17.8,1111122 
TCOON,ioos:station:TCOON:013:1,2014-01-04T23:00:00Z,27.4847,-97.3181,17.6,1111122 
TCOON,ioos:station:TCOON:013:1,2014-01-04T23:36:00Z,27.4847,-97.3181,16.8,1111122 
TCOON,ioos:station:TCOON:013:1,2014-01-05T00:00:00Z,27.4847,-97.3181,16.4,1111122 
TCOON,ioos:station:TCOON:013:1,2014-01-05T00:30:00Z,27.4847,-97.3181,16.5,1111122 
TCOON,ioos:station:TCOON:013:1,2014-01-05T01:00:00Z,27.4847,-97.3181,16.6,1111122 
TCOON,ioos:station:TCOON:013:1,2014-01-05T01:30:00Z,27.4847,-97.3181,16.8,1111122 
TCOON,ioos:station:TCOON:013:1,2014-01-05T02:00:00Z,27.4847,-97.3181,16.3,1111122 
TCOON,ioos:station:TCOON:013:1,2014-01-05T02:30:00Z,27.4847,-97.3181,16.4,1111122 
TCOON,ioos:station:TCOON:013:1,2014-01-05T03:00:00Z,27.4847,-97.3181,15.5,1111122 
TCOON,ioos:station:TCOON:013:1,2014-01-05T03:30:00Z,27.4847,-97.3181,15.3,1111122 
TCOON,ioos:station:TCOON:013:1,2014-01-05T04:00:00Z,27.4847,-97.3181,15.5,1111122 
TCOON,ioos:station:TCOON:013:1,2014-01-05T04:30:00Z,27.4847,-97.3181,15.3,1111122 
TCOON,ioos:station:TCOON:013:1,2014-01-05T05:00:00Z,27.4847,-97.3181,15.3,1111122 
TCOON,ioos:station:TCOON:013:1,2014-01-05T05:48:00Z,27.4847,-97.3181,15.4,1111122 
TCOON,ioos:station:TCOON:013:1,2014-01-05T06:30:00Z,27.4847,-97.3181,15.0,1111122 
TCOON,ioos:station:TCOON:013:1,2014-01-05T07:00:00Z,27.4847,-97.3181,15.3,1111122 
TCOON,ioos:station:TCOON:013:1,2014-01-05T07:30:00Z,27.4847,-97.3181,15.2,1111122 
TCOON,ioos:station:TCOON:013:1,2014-01-05T08:00:00Z,27.4847,-97.3181,15.6,1111122 
TCOON,ioos:station:TCOON:013:1,2014-01-05T08:30:00Z,27.4847,-97.3181,15.3,1111122 
TCOON,ioos:station:TCOON:013:1,2014-01-05T09:00:00Z,27.4847,-97.3181,15.4,1111122 
TCOON,ioos:station:TCOON:013:1,2014-01-05T09:30:00Z,27.4847,-97.3181,15.6,1111122 
TCOON,ioos:station:TCOON:013:1,2014-01-05T10:00:00Z,27.4847,-97.3181,15.8,1111122 
TCOON,ioos:station:TCOON:013:1,2014-01-05T10:30:00Z,27.4847,-97.3181,15.7,1111122 
TCOON,ioos:station:TCOON:013:1,2014-01-05T11:00:00Z,27.4847,-97.3181,15.2,1111122 
TCOON,ioos:station:TCOON:013:1,2014-01-05T11:30:00Z,27.4847,-97.3181,14.4,1111122 
TCOON,ioos:station:TCOON:013:1,2014-01-05T12:00:00Z,27.4847,-97.3181,14.7,1111122 
TCOON,ioos:station:TCOON:013:1,2014-01-05T12:30:00Z,27.4847,-97.3181,14.8,1111122 
TCOON,ioos:station:TCOON:013:1,2014-01-05T13:00:00Z,27.4847,-97.3181,15.2,1111122 
TCOON,ioos:station:TCOON:013:1,2014-01-05T13:30:00Z,27.4847,-97.3181,15.0,1111122 
TCOON,ioos:station:TCOON:013:1,2014-01-05T14:00:00Z,27.4847,-97.3181,14.8,1111122 
TCOON,ioos:station:TCOON:013:1,2014-01-05T14:30:00Z,27.4847,-97.3181,16.0,1111122 
TCOON,ioos:station:TCOON:013:1,2014-01-05T15:00:00Z,27.4847,-97.3181,17.0,1111122 
TCOON,ioos:station:TCOON:013:1,2014-01-05T15:30:00Z,27.4847,-97.3181,16.2,1111122 
TCOON,ioos:station:TCOON:013:1,2014-01-05T16:00:00Z,27.4847,-97.3181,15.8,1111122 
TCOON,ioos:station:TCOON:013:1,2014-01-05T17:00:00Z,27.4847,-97.3181,16.0,1111122 
TCOON,ioos:station:TCOON:013:1,2014-01-05T17:30:00Z,27.4847,-97.3181,16.2,1111122 
TCOON,ioos:station:TCOON:013:1,2014-01-05T18:00:00Z,27.4847,-97.3181,16.5,1111122 
TCOON,ioos:station:TCOON:013:1,2014-01-05T18:30:00Z,27.4847,-97.3181,12.8,1111122 
TCOON,ioos:station:TCOON:013:1,2014-01-05T19:00:00Z,27.4847,-97.3181,12.1,1111122 
TCOON,ioos:station:TCOON:013:1,2014-01-05T19:30:00Z,27.4847,-97.3181,12.0,1111122 
TCOON,ioos:station:TCOON:013:1,2014-01-05T20:00:00Z,27.4847,-97.3181,12.0,1111122 
TCOON,ioos:station:TCOON:013:1,2014-01-05T20:36:00Z,27.4847,-97.3181,13.0,1111122 
TCOON,ioos:station:TCOON:013:1,2014-01-05T21:00:00Z,27.4847,-97.3181,13.4,1111122 
TCOON,ioos:station:TCOON:013:1,2014-01-05T21:36:00Z,27.4847,-97.3181,14.1,1111122 
TCOON,ioos:station:TCOON:013:1,2014-01-05T22:00:00Z,27.4847,-97.3181,13.7,1111122 
TCOON,ioos:station:TCOON:013:1,2014-01-05T22:36:00Z,27.4847,-97.3181,13.1,1111122 
TCOON,ioos:station:TCOON:013:1,2014-01-05T23:00:00Z,27.4847,-97.3181,12.9,1111122 
TCOON,ioos:station:TCOON:013:1,2014-01-05T23:36:00Z,27.4847,-97.3181,12.8,1111122 
TCOON,ioos:station:TCOON:013:1,2014-01-06T00:00:00Z,27.4847,-97.3181,12.5,1111122 
TCOON,ioos:station:TCOON:013:1,2014-01-06T00:30:00Z,27.4847,-97.3181,12.0,1111122 
TCOON,ioos:station:TCOON:013:1,2014-01-06T01:00:00Z,27.4847,-97.3181,11.7,1111122 
TCOON,ioos:station:TCOON:013:1,2014-01-06T01:30:00Z,27.4847,-97.3181,11.5,1111122 
TCOON,ioos:station:TCOON:013:1,2014-01-06T02:00:00Z,27.4847,-97.3181,11.2,1111122 
TCOON,ioos:station:TCOON:013:1,2014-01-06T02:30:00Z,27.4847,-97.3181,11.1,1111122 
TCOON,ioos:station:TCOON:013:1,2014-01-06T03:00:00Z,27.4847,-97.3181,10.7,1111122 
TCOON,ioos:station:TCOON:013:1,2014-01-06T03:30:00Z,27.4847,-97.3181,10.1,1111122 
TCOON,ioos:station:TCOON:013:1,2014-01-06T04:00:00Z,27.4847,-97.3181,9.6,1111122 
TCOON,ioos:station:TCOON:013:1,2014-01-06T04:30:00Z,27.4847,-97.3181,9.1,1111122 
TCOON,ioos:station:TCOON:013:1,2014-01-06T05:00:00Z,27.4847,-97.3181,8.7,1111122 
TCOON,ioos:station:TCOON:013:1,2014-01-06T05:48:00Z,27.4847,-97.3181,7.7,1111122 
TCOON,ioos:station:TCOON:013:1,2014-01-06T06:30:00Z,27.4847,-97.3181,7.1,1111122 
TCOON,ioos:station:TCOON:013:1,2014-01-06T07:00:00Z,27.4847,-97.3181,7.0,1111122 
TCOON,ioos:station:TCOON:013:1,2014-01-06T07:30:00Z,27.4847,-97.3181,6.5,1111122 
TCOON,ioos:station:TCOON:013:1,2014-01-06T08:00:00Z,27.4847,-97.3181,6.2,1111122 
TCOON,ioos:station:TCOON:013:1,2014-01-06T08:30:00Z,27.4847,-97.3181,5.9,1111122 
TCOON,ioos:station:TCOON:013:1,2014-01-06T09:00:00Z,27.4847,-97.3181,5.6,1111122 
TCOON,ioos:station:TCOON:013:1,2014-01-06T09:30:00Z,27.4847,-97.3181,5.2,1111122 
TCOON,ioos:station:TCOON:013:1,2014-01-06T10:00:00Z,27.4847,-97.3181,5.1,1111122 
TCOON,ioos:station:TCOON:013:1,2014-01-06T10:30:00Z,27.4847,-97.3181,4.5,1111122 
TCOON,ioos:station:TCOON:013:1,2014-01-06T11:00:00Z,27.4847,-97.3181,4.3,1111122 
TCOON,ioos:station:TCOON:013:1,2014-01-06T11:30:00Z,27.4847,-97.3181,4.0,1111122 
TCOON,ioos:station:TCOON:013:1,2014-01-06T12:00:00Z,27.4847,-97.3181,3.9,1111122 
TCOON,ioos:station:TCOON:013:1,2014-01-06T12:30:00Z,27.4847,-97.3181,3.9,1111122 
TCOON,ioos:station:TCOON:013:1,2014-01-06T13:00:00Z,27.4847,-97.3181,3.4,1111122 
TCOON,ioos:station:TCOON:013:1,2014-01-06T13:36:00Z,27.4847,-97.3181,3.2,1111122 
TCOON,ioos:station:TCOON:013:1,2014-01-06T14:00:00Z,27.4847,-97.3181,3.0,1111122 
TCOON,ioos:station:TCOON:013:1,2014-01-06T14:30:00Z,27.4847,-97.3181,2.3,1111122 
TCOON,ioos:station:TCOON:013:1,2014-01-06T15:00:00Z,27.4847,-97.3181,2.4,1111122 
TCOON,ioos:station:TCOON:013:1,2014-01-06T15:30:00Z,27.4847,-97.3181,2.2,1111122 
TCOON,ioos:station:TCOON:013:1,2014-01-06T16:00:00Z,27.4847,-97.3181,2.0,1111122 
TCOON,ioos:station:TCOON:013:1,2014-01-06T16:30:00Z,27.4847,-97.3181,2.1,1111122 
TCOON,ioos:station:TCOON:013:1,2014-01-06T17:00:00Z,27.4847,-97.3181,2.0,1111122 
TCOON,ioos:station:TCOON:013:1,2014-01-06T17:30:00Z,27.4847,-97.3181,2.1,1111122 
TCOON,ioos:station:TCOON:013:1,2014-01-06T18:00:00Z,27.4847,-97.3181,2.1,1111122 
TCOON,ioos:station:TCOON:013:1,2014-01-06T18:30:00Z,27.4847,-97.3181,2.5,1111122 
TCOON,ioos:station:TCOON:013:1,2014-01-06T19:00:00Z,27.4847,-97.3181,2.5,1111122 
TCOON,ioos:station:TCOON:013:1,2014-01-06T19:30:00Z,27.4847,-97.3181,2.2,1111122 
TCOON,ioos:station:TCOON:013:1,2014-01-06T20:06:00Z,27.4847,-97.3181,2.4,1111122 
TCOON,ioos:station:TCOON:013:1,2014-01-06T20:30:00Z,27.4847,-97.3181,2.5,1111122 
TCOON,ioos:station:TCOON:013:1,2014-01-06T21:00:00Z,27.4847,-97.3181,2.7,1111122 
TCOON,ioos:station:TCOON:013:1,2014-01-06T21:48:00Z,27.4847,-97.3181,2.8,1111122 
TCOON,ioos:station:TCOON:013:1,2014-01-06T22:00:00Z,27.4847,-97.3181,2.9,1111122 
TCOON,ioos:station:TCOON:013:1,2014-01-06T23:00:00Z,27.4847,-97.3181,3.2,1111122 
TCOON,ioos:station:TCOON:013:1,2014-01-06T23:30:00Z,27.4847,-97.3181,3.0,1111122 
TCOON,ioos:station:TCOON:013:1,2014-01-07T00:00:00Z,27.4847,-97.3181,3.0,1111122 
TCOON,ioos:station:TCOON:013:1,2014-01-07T00:30:00Z,27.4847,-97.3181,2.9,1111122 
TCOON,ioos:station:TCOON:013:1,2014-01-07T01:00:00Z,27.4847,-97.3181,3.3,1111122 
TCOON,ioos:station:TCOON:013:1,2014-01-07T01:30:00Z,27.4847,-97.3181,2.8,1111122 
TCOON,ioos:station:TCOON:013:1,2014-01-07T02:00:00Z,27.4847,-97.3181,2.7,1111122 
TCOON,ioos:station:TCOON:013:1,2014-01-07T02:30:00Z,27.4847,-97.3181,2.8,1111122 
TCOON,ioos:station:TCOON:013:1,2014-01-07T03:00:00Z,27.4847,-97.3181,2.7,1111122 
TCOON,ioos:station:TCOON:013:1,2014-01-07T03:30:00Z,27.4847,-97.3181,2.4,1111122 
TCOON,ioos:station:TCOON:013:1,2014-01-07T04:00:00Z,27.4847,-97.3181,2.5,1111122 
TCOON,ioos:station:TCOON:013:1,2014-01-07T04:30:00Z,27.4847,-97.3181,2.3,1111122 
TCOON,ioos:station:TCOON:013:1,2014-01-07T05:00:00Z,27.4847,-97.3181,2.3,1111122 
TCOON,ioos:station:TCOON:013:1,2014-01-07T05:54:00Z,27.4847,-97.3181,1.9,1111122 
TCOON,ioos:station:TCOON:013:1,2014-01-07T06:30:00Z,27.4847,-97.3181,1.9,1111122 
TCOON,ioos:station:TCOON:013:1,2014-01-07T07:00:00Z,27.4847,-97.3181,1.9,1111122 
TCOON,ioos:station:TCOON:013:1,2014-01-07T07:30:00Z,27.4847,-97.3181,2.0,1111122 
TCOON,ioos:station:TCOON:013:1,2014-01-07T08:06:00Z,27.4847,-97.3181,1.7,1111122 
TCOON,ioos:station:TCOON:013:1,2014-01-07T09:00:00Z,27.4847,-97.3181,1.6,1111122 
TCOON,ioos:station:TCOON:013:1,2014-01-07T09:30:00Z,27.4847,-97.3181,1.7,1111122 
TCOON,ioos:station:TCOON:013:1,2014-01-07T09:54:00Z,27.4847,-97.3181,1.9,1111122 
TCOON,ioos:station:TCOON:013:1,2014-01-07T10:30:00Z,27.4847,-97.3181,2.0,1111122 